Location: Strawberry
(45.6646°N, 111.9596°W)
Time: 13:55:25
(UTC+00:00)

ISS - Visible Passes

Search period start: 09 December 2023 00:00
Search period end: 19 December 2023 00:00
Orbit: 415 x 417 km, 51.6° (Epoch: 09 December)

Date Brightness Start Highest point End Pass type
(mag) Time Alt. Az. Time Alt. Az. Time Alt. Az.
15 Dec -0.4 13:40:38 10° SSE 13:42:15 13° SE 13:43:53 10° ESE visible
16 Dec -2.7 14:26:17 10° SW 14:29:31 50° SE 14:32:46 10° ENE visible
17 Dec -1.8 13:37:35 10° SSW 13:40:33 30° SE 13:43:33 10° ENE visible
18 Dec -1.1 12:49:14 10° S 12:51:36 19° SE 12:54:03 10° E visible
18 Dec -3.8 14:24:39 10° WSW 14:27:59 74° NNW 14:31:20 10° ENE visible
